When you browse on this site, cookies collect data to enhance your experience and personalize the content and advertising you see.
Visit our Privacy Policy to learn more. By continuing to use the site, you agree to this use of cookies and data.
  • In Latvia
  • List of Countries
  • For 7 days
  • Water Temperature
  • Satellite Maps
  • Weather Map
  • Weather Widgets
  • user-avatar
    Login

    Hourly Weather Armawir

    Today, 18 June, Tuesday

    Time Temperature Precipitation Wind Pressure Humidity
    00:00 +20°C° 0.5 mm 2 mps 686 mmHg 69%
    01:00 +20°C° 0.1 mm 2 mps 686 mmHg 70%
    02:00 +19°C° 0.1 mm 2 mps 685 mmHg 71%
    03:00 +19°C° 0.1 mm 2 mps 685 mmHg 72%
    04:00 +20°C° 0 mm 1 mps 685 mmHg 69%
    05:00 +21°C° 0 mm 1 mps 685 mmHg 66%
    06:00 +22°C° 0 mm 1 mps 685 mmHg 64%
    07:00 +24°C° 0 mm 1 mps 686 mmHg 58%
    08:00 +25°C° 0 mm 1 mps 686 mmHg 52%
    09:00 +27°C° 0 mm 1 mps 686 mmHg 46%
    10:00 +29°C° 0 mm 1 mps 686 mmHg 40%
    11:00 +30°C° 0 mm 1 mps 686 mmHg 35%
    12:00 +32°C° 0 mm 1 mps 686 mmHg 30%
    13:00 +32°C° 0 mm 1 mps 686 mmHg 29%
    14:00 +33°C° 0 mm 1 mps 685 mmHg 27%
    15:00 +34°C° 0 mm 2 mps 685 mmHg 26%
    16:00 +32°C° 0 mm 2 mps 685 mmHg 28%
    17:00 +32°C° 0 mm 2 mps 685 mmHg 29%
    18:00 +31°C° 0 mm 3 mps 685 mmHg 30%
    19:00 +29°C° 0.1 mm 2 mps 685 mmHg 36%
    20:00 +27°C° 0.1 mm 2 mps 685 mmHg 41%
    21:00 +25°C° 0.1 mm 2 mps 685 mmHg 46%
    22:00 +24°C° 0.2 mm 1 mps 685 mmHg 52%
    23:00 +23°C° 0.2 mm 1 mps 685 mmHg 57%

    Tomorrow, 19 June, Wednesday

    Time Temperature Precipitation Wind Pressure Humidity
    00:00 +22°C° 0.2 mm 1 mps 685 mmHg 62%
    01:00 +21°C° 0.1 mm 1 mps 685 mmHg 63%
    02:00 +21°C° 0.1 mm 1 mps 685 mmHg 64%
    03:00 +21°C° 0.1 mm 1 mps 684 mmHg 66%
    04:00 +21°C° 0 mm 1 mps 685 mmHg 64%
    05:00 +22°C° 0 mm 1 mps 685 mmHg 61%
    06:00 +23°C° 0 mm 1 mps 685 mmHg 59%
    07:00 +24°C° 0 mm 1 mps 685 mmHg 54%
    08:00 +26°C° 0 mm 1 mps 685 mmHg 49%
    09:00 +27°C° 0 mm 1 mps 685 mmHg 44%
    10:00 +29°C° 0 mm 1 mps 685 mmHg 40%
    11:00 +30°C° 0 mm 1 mps 685 mmHg 36%
    12:00 +32°C° 0 mm 1 mps 685 mmHg 32%
    13:00 +32°C° 0 mm 1 mps 685 mmHg 29%
    14:00 +33°C° 0 mm 1 mps 685 mmHg 27%
    15:00 +34°C° 0 mm 1 mps 685 mmHg 24%
    16:00 +34°C° 0 mm 2 mps 685 mmHg 26%
    17:00 +32°C° 0 mm 2 mps 685 mmHg 28%
    18:00 +33°C° 0 mm 3 mps 685 mmHg 31%
    19:00 +30°C° 0.1 mm 3 mps 685 mmHg 36%
    20:00 +28°C° 0.1 mm 3 mps 686 mmHg 42%
    21:00 +26°C° 0.1 mm 3 mps 686 mmHg 48%
    22:00 +25°C° 0 mm 2 mps 686 mmHg 51%
    23:00 +24°C° 0 mm 2 mps 685 mmHg 54%

    Day after tomorrow, 20 June, Thursday

    Time Temperature Precipitation Wind Pressure Humidity
    00:00 +23°C° 0 mm 1 mps 685 mmHg 58%
    01:00 +23°C° 0 mm 1 mps 685 mmHg 59%
    02:00 +22°C° 0 mm 1 mps 685 mmHg 60%
    03:00 +21°C° 0 mm 1 mps 684 mmHg 61%
    04:00 +22°C° 0 mm 1 mps 685 mmHg 59%
    05:00 +23°C° 0 mm 1 mps 685 mmHg 57%
    06:00 +24°C° 0 mm 1 mps 685 mmHg 55%
    07:00 +25°C° 0 mm 1 mps 685 mmHg 50%
    08:00 +27°C° 0 mm 1 mps 685 mmHg 45%
    09:00 +28°C° 0 mm 1 mps 685 mmHg 41%
    10:00 +30°C° 0.1 mm 2 mps 685 mmHg 37%
    11:00 +31°C° 0.1 mm 2 mps 685 mmHg 33%
    12:00 +32°C° 0.1 mm 2 mps 685 mmHg 30%
    13:00 +34°C° 0 mm 2 mps 685 mmHg 28%
    14:00 +35°C° 0 mm 2 mps 684 mmHg 25%
    15:00 +36°C° 0 mm 3 mps 684 mmHg 23%
    16:00 +35°C° 0 mm 3 mps 684 mmHg 25%
    17:00 +34°C° 0 mm 3 mps 684 mmHg 27%
    18:00 +34°C° 0 mm 4 mps 684 mmHg 29%
    19:00 +31°C° 0.1 mm 3 mps 684 mmHg 35%
    20:00 +28°C° 0.1 mm 3 mps 684 mmHg 40%
    21:00 +26°C° 0.1 mm 3 mps 685 mmHg 46%
    22:00 +25°C° 0.2 mm 3 mps 684 mmHg 51%
    23:00 +24°C° 0.2 mm 3 mps 684 mmHg 57%

    21 June, Friday

    Time Temperature Precipitation Wind Pressure Humidity
    00:00 +21°C° 0.2 mm 3 mps 684 mmHg 63%
    01:00 +21°C° 0.4 mm 2 mps 684 mmHg 65%
    02:00 +20°C° 0.4 mm 2 mps 684 mmHg 67%
    03:00 +21°C° 0.4 mm 1 mps 683 mmHg 69%
    04:00 +21°C° 0.1 mm 1 mps 684 mmHg 67%
    05:00 +22°C° 0.1 mm 1 mps 684 mmHg 65%
    06:00 +23°C° 0.1 mm 1 mps 684 mmHg 63%
    07:00 +24°C° 0.2 mm 1 mps 684 mmHg 58%
    08:00 +26°C° 0.2 mm 1 mps 684 mmHg 53%
    09:00 +27°C° 0.2 mm 1 mps 684 mmHg 47%
    10:00 +29°C° 0.1 mm 1 mps 684 mmHg 43%
    11:00 +30°C° 0.1 mm 1 mps 684 mmHg 38%
    12:00 +32°C° 0.1 mm 1 mps 684 mmHg 33%
    13:00 +34°C° 0.1 mm 2 mps 684 mmHg 31%
    14:00 +35°C° 0.1 mm 2 mps 684 mmHg 28%
    15:00 +35°C° 0.1 mm 2 mps 684 mmHg 26%
    16:00 +33°C° 0.6 mm 3 mps 684 mmHg 33%
    17:00 +30°C° 0.6 mm 3 mps 684 mmHg 41%
    18:00 +27°C° 0.6 mm 4 mps 684 mmHg 48%
    19:00 +26°C° 0.1 mm 3 mps 685 mmHg 53%
    20:00 +24°C° 0.1 mm 3 mps 685 mmHg 58%
    21:00 +23°C° 0.1 mm 2 mps 686 mmHg 63%
    22:00 +21°C° 0.1 mm 2 mps 686 mmHg 64%
    23:00 +21°C° 0.1 mm 2 mps 686 mmHg 64%

    22 June, Saturday

    Time Temperature Precipitation Wind Pressure Humidity
    00:00 +21°C° 0.1 mm 2 mps 685 mmHg 65%
    01:00 +20°C° 0 mm 2 mps 685 mmHg 65%
    02:00 +20°C° 0 mm 2 mps 685 mmHg 65%
    03:00 +20°C° 0 mm 1 mps 685 mmHg 65%
    04:00 +21°C° 0 mm 1 mps 686 mmHg 63%
    05:00 +22°C° 0 mm 1 mps 686 mmHg 61%
    06:00 +22°C° 0 mm 1 mps 686 mmHg 59%
    07:00 +24°C° 0 mm 1 mps 686 mmHg 54%
    08:00 +26°C° 0 mm 1 mps 687 mmHg 49%
    09:00 +27°C° 0 mm 1 mps 687 mmHg 43%
    10:00 +29°C° 0 mm 1 mps 687 mmHg 40%
    11:00 +30°C° 0 mm 2 mps 687 mmHg 36%
    12:00 +32°C° 0 mm 2 mps 687 mmHg 32%
    13:00 +34°C° 0 mm 2 mps 687 mmHg 30%
    14:00 +34°C° 0 mm 2 mps 687 mmHg 28%
    15:00 +35°C° 0 mm 2 mps 687 mmHg 26%
    16:00 +35°C° 0 mm 2 mps 687 mmHg 27%
    17:00 +35°C° 0 mm 3 mps 687 mmHg 27%
    18:00 +35°C° 0 mm 3 mps 686 mmHg 28%
    19:00 +31°C° 0 mm 3 mps 687 mmHg 35%
    20:00 +29°C° 0 mm 2 mps 687 mmHg 41%
    21:00 +26°C° 0 mm 2 mps 687 mmHg 48%
    22:00 +26°C° 0.1 mm 2 mps 687 mmHg 51%
    23:00 +25°C° 0.1 mm 2 mps 687 mmHg 54%

    23 June, Sunday

    Time Temperature Precipitation Wind Pressure Humidity
    00:00 +24°C° 0.1 mm 1 mps 687 mmHg 57%
    01:00 +23°C° 0.1 mm 1 mps 687 mmHg 59%
    02:00 +23°C° 0.1 mm 1 mps 687 mmHg 61%
    03:00 +22°C° 0.1 mm 1 mps 686 mmHg 64%
    04:00 +23°C° 0 mm 1 mps 687 mmHg 61%
    05:00 +24°C° 0 mm 1 mps 687 mmHg 59%
    06:00 +24°C° 0 mm 1 mps 687 mmHg 57%
    07:00 +26°C° 0 mm 1 mps 687 mmHg 52%
    08:00 +28°C° 0 mm 1 mps 688 mmHg 46%
    09:00 +29°C° 0 mm 1 mps 688 mmHg 41%
    10:00 +31°C° 0 mm 1 mps 688 mmHg 38%
    11:00 +32°C° 0 mm 2 mps 688 mmHg 35%
    12:00 +35°C° 0 mm 2 mps 688 mmHg 31%
    13:00 +36°C° 0 mm 2 mps 688 mmHg 29%
    14:00 +36°C° 0 mm 2 mps 687 mmHg 27%
    15:00 +37°C° 0 mm 2 mps 687 mmHg 25%
    16:00 +37°C° 0 mm 3 mps 687 mmHg 27%
    17:00 +36°C° 0 mm 3 mps 687 mmHg 29%
    18:00 +35°C° 0 mm 4 mps 687 mmHg 31%
    19:00 +32°C° 0.3 mm 4 mps 687 mmHg 40%
    20:00 +28°C° 0.3 mm 4 mps 687 mmHg 49%
    21:00 +25°C° 0.3 mm 4 mps 687 mmHg 58%
    22:00 +25°C° 0.4 mm 4 mps 687 mmHg 61%
    23:00 +24°C° 0.4 mm 3 mps 687 mmHg 65%
    Show more